| time (UTC) | temp C | wind direction | speed KPH | gust KPH | rain 1hr cm | rain 24hr cm | rain mn cm | humidity % | barometer mb |
| 20260504214520 | 13 | 188 | 1.6 | 1.6 | 0.00 | 0.18 | 0.18 | 72 | 1016.9 |
| 20260504213523 | 13 | 126 | 1.6 | 3.2 | 0.00 | 0.18 | 0.18 | 72 | 1016.8 |
| 20260504212515 | 13 | 170 | 3.2 | 3.2 | 0.00 | 0.18 | 0.18 | 69 | 1016.7 |
| 20260504211517 | 13 | 190 | 1.6 | 3.2 | 0.00 | 0.18 | 0.18 | 70 | 1016.7 |
| 20260504210519 | 13 | 134 | 1.6 | 1.6 | 0.00 | 0.18 | 0.18 | 68 | 1016.9 |
| 20260504205522 | 13 | 171 | 3.2 | 3.2 | 0.00 | 0.18 | 0.18 | 69 | 1016.9 |
| 20260504204524 | 13 | 163 | 3.2 | 3.2 | 0.00 | 0.18 | 0.18 | 69 | 1016.9 |
| 20260504203517 | 14 | 238 | 1.6 | 3.2 | 0.00 | 0.18 | 0.18 | 64 | 1016.8 |
| 20260504202519 | 14 | 273 | 3.2 | 3.2 | 0.00 | 0.18 | 0.18 | 66 | 1016.9 |
| 20260504201522 | 14 | 249 | 1.6 | 1.6 | 0.00 | 0.18 | 0.18 | 68 | 1016.9 |
| 20260504200524 | 15 | 294 | 3.2 | 3.2 | 0.00 | 0.18 | 0.18 | 65 | 1016.8 |
| 20260504195516 | 15 | 272 | 1.6 | 1.6 | 0.00 | 0.18 | 0.18 | 64 | 1016.7 |
| 20260504194519 | 15 | 208 | 6.4 | 6.4 | 0.00 | 0.18 | 0.18 | 64 | 1016.7 |
| 20260504193521 | 16 | 191 | 4.8 | 6.4 | 0.00 | 0.18 | 0.18 | 60 | 1016.7 |
| 20260504192523 | 16 | 161 | 4.8 | 4.8 | 0.00 | 0.18 | 0.18 | 60 | 1016.6 |
| 20260504191516 | 16 | 179 | 3.2 | 3.2 | 0.00 | 0.18 | 0.18 | 60 | 1016.5 |
| 20260504190538 | 17 | 303 | 4.8 | 4.8 | 0.00 | 0.18 | 0.18 | 54 | 1016.4 |
| 20260504185521 | 17 | 308 | 6.4 | 8.0 | 0.03 | 0.18 | 0.18 | 55 | 1016.3 |
| 20260504184524 | 17 | 271 | 8.0 | 8.0 | 0.03 | 0.18 | 0.18 | 53 | 1016.3 |
| 20260504183535 | 17 | 209 | 8.0 | 8.0 | 0.03 | 0.18 | 0.18 | 54 | 1016.3 |
| 20260504182517 | 18 | 204 | 8.0 | 9.7 | 0.03 | 0.18 | 0.18 | 50 | 1016.1 |
| 20260504181520 | 18 | 212 | 9.7 | 9.7 | 0.03 | 0.18 | 0.18 | 50 | 1016.1 |
| 20260504180522 | 18 | 210 | 9.7 | 9.7 | 0.03 | 0.18 | 0.18 | 49 | 1016.0 |
| 20260504175515 | 19 | 209 | 8.0 | 9.7 | 0.00 | 0.15 | 0.15 | 46 | 1015.9 |
| 20260504174517 | 20 | 209 | 9.7 | 12.9 | 0.00 | 0.15 | 0.15 | 48 | 1015.9 |
| 20260504173520 | 20 | 221 | 6.4 | 6.4 | 0.00 | 0.15 | 0.15 | 51 | 1015.9 |
| 20260504172522 | 20 | 212 | 3.2 | 4.8 | 0.00 | 0.15 | 0.15 | 50 | 1015.9 |
| 20260504171544 | 20 | 225 | 3.2 | 3.2 | 0.00 | 0.15 | 0.15 | 49 | 1015.9 |
| 20260504170517 | 20 | 215 | 6.4 | 8.0 | 0.03 | 0.15 | 0.15 | 49 | 1016.0 |
| 20260504150556 | 21 | 200 | 17.7 | 24.1 | 0.00 | 0.10 | 0.08 | 42 | 1016.2 |
| 20260504140521 | 22 | 202 | 19.3 | 24.1 | 0.00 | 0.13 | 0.08 | 39 | 1016.5 |
| 20260504130516 | 23 | 230 | 20.9 | 25.7 | 0.03 | 0.13 | 0.08 | 38 | 1016.9 |
| 20260504110522 | 23 | 245 | 12.9 | 19.3 | 0.00 | 0.13 | 0.05 | 31 | 1017.4 |
| 20260504100602 | 23 | 212 | 14.5 | 17.7 | 0.00 | 0.13 | 0.05 | 29 | 1017.8 |
| 20260504081521 | 21 | 126 | 4.8 | 6.4 | 0.03 | 0.13 | 0.05 | 43 | 1017.9 |
| 20260504080523 | 20 | 159 | 3.2 | 6.4 | 0.03 | 0.13 | 0.05 | 43 | 1017.9 |
| 20260504050519 | 8 | 149 | 4.8 | 4.8 | 0.00 | 0.13 | 0.03 | 84 | 1017.4 |
| 20260504045521 | 7 | 135 | 4.8 | 4.8 | 0.03 | 0.13 | 0.03 | 84 | 1017.2 |
| 20260504044524 | 7 | 125 | 4.8 | 4.8 | 0.03 | 0.13 | 0.03 | 84 | 1017.2 |
| 20260504043517 | 7 | 123 | 8.0 | 8.0 | 0.03 | 0.13 | 0.03 | 86 | 1017.1 |
| 20260504042520 | 7 | 137 | 8.0 | 8.0 | 0.03 | 0.13 | 0.03 | 87 | 1017.1 |
| 20260504041522 | 7 | 139 | 8.0 | 8.0 | 0.03 | 0.13 | 0.03 | 86 | 1017.0 |
| 20260504040515 | 7 | 132 | 6.4 | 8.0 | 0.03 | 0.13 | 0.03 | 86 | 1017.1 |
| 20260504035517 | 7 | 118 | 6.4 | 6.4 | 0.00 | 0.13 | 0.00 | 85 | 1017.1 |
| 20260504034520 | 7 | 133 | 6.4 | 8.0 | 0.00 | 0.13 | 0.00 | 84 | 1017.1 |
| 20260504033523 | 7 | 135 | 4.8 | 4.8 | 0.00 | 0.13 | 0.00 | 84 | 1017.1 |
| 20260504032515 | 7 | 125 | 4.8 | 4.8 | 0.00 | 0.13 | 0.00 | 84 | 1017.1 |
| 20260504031518 | 7 | 102 | 3.2 | 4.8 | 0.00 | 0.13 | 0.00 | 84 | 1017.1 |
| 20260504030521 | 7 | 130 | 4.8 | 6.4 | 0.00 | 0.13 | 0.00 | 82 | 1017.1 |
| 20260504025543 | 8 | 136 | 4.8 | 4.8 | 0.00 | 0.13 | 0.00 | 82 | 1017.1 |
| 20260504024516 | 8 | 113 | 4.8 | 6.4 | 0.00 | 0.13 | 0.00 | 82 | 1017.3 |
| 20260504023519 | 8 | 108 | 4.8 | 6.4 | 0.00 | 0.13 | 0.00 | 81 | 1017.3 |
| 20260504022521 | 8 | 122 | 4.8 | 6.4 | 0.00 | 0.13 | 0.00 | 81 | 1017.4 |
| 20260504021544 | 8 | 123 | 6.4 | 8.0 | 0.00 | 0.13 | 0.00 | 79 | 1017.4 |
| 20260504020557 | 8 | 141 | 8.0 | 9.7 | 0.00 | 0.13 | 0.00 | 80 | 1017.4 |
| 20260504015519 | 8 | 137 | 6.4 | 6.4 | 0.00 | 0.13 | 0.00 | 80 | 1017.4 |
| 20260504014522 | 8 | 88 | 4.8 | 4.8 | 0.00 | 0.13 | 0.00 | 79 | 1017.4 |
| 20260504013525 | 8 | 117 | 4.8 | 4.8 | 0.00 | 0.13 | 0.00 | 79 | 1017.4 |
| 20260504012517 | 8 | 97 | 1.6 | 3.2 | 0.00 | 0.13 | 0.00 | 80 | 1017.5 |
| 20260504011520 | 8 | 125 | 3.2 | 3.2 | 0.00 | 0.13 | 0.00 | 80 | 1017.5 |
| 20260504010523 | 8 | 137 | 4.8 | 4.8 | 0.00 | 0.13 | 0.00 | 80 | 1017.4 |
| 20260504005515 | 8 | 141 | 8.0 | 9.7 | 0.00 | 0.13 | 0.00 | 79 | 1017.4 |
| 20260504004518 | 8 | 107 | 4.8 | 6.4 | 0.00 | 0.13 | 0.00 | 79 | 1017.4 |
| 20260504003521 | 9 | 137 | 3.2 | 4.8 | 0.00 | 0.13 | 0.00 | 76 | 1017.5 |
| 20260504002523 | 9 | 55 | 3.2 | 3.2 | 0.00 | 0.13 | 0.00 | 78 | 1017.5 |
| 20260504001516 | 8 | 102 | 1.6 | 3.2 | 0.00 | 0.13 | 0.00 | 80 | 1017.5 |
| 20260504000519 | 8 | 123 | 6.4 | 6.4 | 0.00 | 0.13 | 0.00 | 79 | 1017.5 |
| 20260503235521 | 9 | 127 | 8.0 | 9.7 | 0.00 | 0.13 | 0.00 | 78 | 1017.5 |
| 20260503234605 | 9 | 133 | 8.0 | 8.0 | 0.00 | 0.13 | 0.00 | 76 | 1017.5 |
| 20260503233517 | 10 | 137 | 8.0 | 8.0 | 0.00 | 0.13 | 0.00 | 75 | 1017.6 |
| 20260503232519 | 10 | 149 | 4.8 | 4.8 | 0.00 | 0.13 | 0.00 | 75 | 1017.7 |
| 20260503231522 | 10 | 146 | 3.2 | 3.2 | 0.00 | 0.13 | 0.00 | 77 | 1017.6 |
| 20260503230515 | 10 | 109 | 4.8 | 4.8 | 0.00 | 0.13 | 0.00 | 74 | 1017.5 |
| 20260503225518 | 10 | 118 | 4.8 | 4.8 | 0.00 | 0.13 | 0.00 | 75 | 1017.5 |
| 20260503224521 | 10 | 122 | 4.8 | 6.4 | 0.00 | 0.13 | 0.00 | 74 | 1017.5 |
| 20260503223523 | 10 | 145 | 4.8 | 4.8 | 0.00 | 0.13 | 0.00 | 75 | 1017.5 |
| 20260503222535 | 10 | 166 | 3.2 | 4.8 | 0.00 | 0.13 | 0.00 | 76 | 1017.5 |
| 20260503221518 | 10 | 136 | 4.8 | 4.8 | 0.00 | 0.13 | 0.00 | 71 | 1017.4 |
| 20260503220521 | 11 | 95 | 6.4 | 8.0 | 0.00 | 0.13 | 0.00 | 70 | 1017.4 |
| 20260503215523 | 11 | 79 | 4.8 | 4.8 | 0.00 | 0.13 | 0.13 | 69 | 1017.3 |